{"data":{"norad_id":40384,"intl_designator":"2015-005A","name":"INMARSAT 5-F2","alt_names":[],"object_type":"PAYLOAD","status":"ACTIVE","operator":null,"country":"IM","launch_date":"2015-02-01","launch_site_code":"TYMSC","launch_vehicle":null,"mission":null,"orbit_class":"UNKNOWN","rcs_meters":16.5703,"size_class":null,"mass_kg":null,"dimensions":null,"purposes":["comms"],"wikipedia_slug":null,"has_3d_model":false,"image_url":null,"decayed_at":null,"tle_current":{"epoch":"2026-05-24T20:38:17.473344Z","epoch_age_seconds":97405,"freshness":"FRESH","line1":"1 40384U 15005A   26144.85992446 -.00000289  00000+0  00000+0 0  9992","line2":"2 40384   0.0160 339.1108 0001505 206.4935 311.3838  1.00271835 40764","mean_motion":1.00271835,"eccentricity":0.0001505,"inclination_deg":0.016,"raan_deg":339.1108,"arg_perigee_deg":206.4935,"mean_anomaly_deg":311.3838,"bstar":0,"rev_number":4076,"period_min":1436.0961879275,"perigee_km":35780.235154331,"apogee_km":35792.926734432,"semimajor_km":42164.717944381,"source":"CELESTRAK","updated_at":"2026-05-25T13:38:13.954852Z"}}}